Time,TemperatureF,DewpointF,PressureIn,WindDirection,WindDirectionDegrees,WindSpeedMPH,WindSpeedGustMPH,Humidity,HourlyPrecipIn,Conditions,Clouds,dailyrainin,SoftwareType,DateUTC
2013-03-07 00:02:00,30.0,28.0,30.24,WNW,300,5.0,-999.0,92,-99.99,,,-99.99,,2013-03-07 05:02:00,
2013-03-07 00:12:00,30.0,28.0,30.24,WNW,290,3.0,-999.0,92,-99.99,,,-99.99,,2013-03-07 05:12:00,
2013-03-07 00:22:00,30.0,28.0,30.24,WNW,290,3.0,-999.0,92,-99.99,,,-99.99,,2013-03-07 05:22:00,
2013-03-07 00:32:00,30.0,28.0,30.24,North,0,0.0,-999.0,92,-99.99,,,-99.99,,2013-03-07 05:32:00,
2013-03-07 00:42:00,30.0,28.0,30.24,North,0,0.0,-999.0,92,-99.99,,,-99.99,,2013-03-07 05:42:00,
2013-03-07 00:52:00,30.0,28.0,30.24,WNW,290,3.0,-999.0,92,-99.99,,,-99.99,,2013-03-07 05:52:00,
2013-03-07 01:01:00,30.0,28.0,30.24,WNW,290,3.0,-999.0,92,-99.99,,,-99.99,,2013-03-07 06:01:00,
2013-03-07 01:11:00,30.0,28.0,30.24,WNW,290,3.0,-999.0,92,-99.99,,,-99.99,,2013-03-07 06:11:00,
2013-03-07 01:21:00,30.0,28.0,30.24,WNW,290,5.0,-999.0,92,-99.99,,,-99.99,,2013-03-07 06:21:00,
2013-03-07 01:32:00,30.0,28.0,30.24,WNW,290,3.0,-999.0,92,-99.99,,,-99.99,,2013-03-07 06:32:00,
2013-03-07 01:42:00,30.0,28.0,30.24,WNW,290,3.0,-999.0,92,-99.99,,,-99.99,,2013-03-07 06:42:00,
2013-03-07 01:52:00,30.0,28.0,30.24,WNW,290,5.0,-999.0,92,-99.99,,,-99.99,,2013-03-07 06:52:00,
2013-03-07 02:01:00,30.0,28.0,30.24,WNW,290,5.0,-999.0,92,-99.99,,,-99.99,,2013-03-07 07:01:00,
2013-03-07 02:11:00,30.0,28.0,30.25,WNW,290,3.0,-999.0,92,-99.99,,,-99.99,,2013-03-07 07:11:00,
2013-03-07 02:21:00,30.0,28.0,30.25,WNW,300,3.0,-999.0,92,-99.99,,,-99.99,,2013-03-07 07:21:00,
2013-03-07 02:32:00,30.0,28.0,30.25,WNW,290,5.0,-999.0,92,-99.99,,,-99.99,,2013-03-07 07:32:00,
2013-03-07 02:42:00,30.0,28.0,30.25,North,0,0.0,-999.0,92,-99.99,,,-99.99,,2013-03-07 07:42:00,
2013-03-07 02:52:00,30.0,28.0,30.25,WNW,290,5.0,-999.0,92,-99.99,,,-99.99,,2013-03-07 07:52:00,
2013-03-07 03:03:00,30.0,28.0,30.25,WNW,290,5.0,-999.0,92,-99.99,,,-99.99,,2013-03-07 08:03:00,
2013-03-07 03:12:00,30.0,28.0,30.25,West,280,3.0,-999.0,92,-99.99,,,-99.99,,2013-03-07 08:12:00,
2013-03-07 03:23:00,30.0,28.0,30.25,North,0,0.0,-999.0,92,-99.99,,,-99.99,,2013-03-07 08:23:00,
2013-03-07 03:33:00,30.0,28.0,30.25,WNW,290,3.0,-999.0,92,-99.99,,,-99.99,,2013-03-07 08:33:00,
2013-03-07 03:44:00,30.0,28.0,30.25,WNW,300,3.0,-999.0,92,-99.99,,,-99.99,,2013-03-07 08:44:00,
2013-03-07 03:53:00,30.0,28.0,30.25,WNW,290,3.0,-999.0,92,-99.99,,,-99.99,,2013-03-07 08:53:00,
2013-03-07 04:03:00,30.0,28.0,30.25,WNW,290,3.0,-999.0,92,-99.99,,,-99.99,,2013-03-07 09:03:00,
2013-03-07 04:13:00,30.0,28.0,30.25,WNW,290,3.0,-999.0,92,-99.99,,,-99.99,,2013-03-07 09:13:00,
2013-03-07 04:23:00,30.0,28.0,30.26,WNW,290,3.0,-999.0,92,-99.99,,,-99.99,,2013-03-07 09:23:00,
2013-03-07 04:33:00,30.0,28.0,30.26,WNW,300,5.0,-999.0,92,-99.99,,,-99.99,,2013-03-07 09:33:00,
2013-03-07 04:42:00,30.0,28.0,30.26,WNW,300,5.0,-999.0,92,-99.99,,,-99.99,,2013-03-07 09:42:00,
2013-03-07 04:52:00,30.0,28.0,30.27,WNW,290,5.0,-999.0,92,-99.99,,,-99.99,,2013-03-07 09:52:00,
2013-03-07 05:03:00,30.0,28.0,30.27,WNW,290,5.0,-999.0,92,-99.99,,,-99.99,,2013-03-07 10:03:00,
2013-03-07 05:13:00,30.0,28.0,30.27,WNW,300,3.0,-999.0,92,-99.99,,,-99.99,,2013-03-07 10:13:00,
2013-03-07 05:23:00,30.0,28.0,30.27,WNW,290,3.0,-999.0,92,-99.99,,,-99.99,,2013-03-07 10:23:00,
2013-03-07 05:33:00,28.0,28.0,30.27,North,0,0.0,-999.0,100,-99.99,,,-99.99,,2013-03-07 10:33:00,
2013-03-07 05:42:00,28.0,28.0,30.28,North,0,0.0,-999.0,100,-99.99,,,-99.99,,2013-03-07 10:42:00,
2013-03-07 05:52:00,28.0,28.0,30.28,WNW,300,3.0,-999.0,100,-99.99,,,-99.99,,2013-03-07 10:52:00,
2013-03-07 06:03:00,28.0,28.0,30.28,WNW,300,3.0,-999.0,100,-99.99,,,-99.99,,2013-03-07 11:03:00,
2013-03-07 06:12:00,28.0,28.0,30.29,North,0,0.0,-999.0,100,-99.99,,,-99.99,,2013-03-07 11:12:00,
2013-03-07 06:23:00,28.0,28.0,30.29,West,280,5.0,-999.0,100,-99.99,,,-99.99,,2013-03-07 11:23:00,
2013-03-07 06:33:00,28.0,28.0,30.30,North,0,0.0,-999.0,100,-99.99,,,-99.99,,2013-03-07 11:33:00,
2013-03-07 06:43:00,28.0,28.0,30.30,West,280,3.0,-999.0,100,-99.99,,,-99.99,,2013-03-07 11:43:00,
2013-03-07 06:53:00,28.0,28.0,30.30,North,0,0.0,-999.0,100,-99.99,,,-99.99,,2013-03-07 11:53:00,
2013-03-07 07:03:00,28.0,28.0,30.30,North,0,0.0,-999.0,100,-99.99,,,-99.99,,2013-03-07 12:03:00,
2013-03-07 07:12:00,28.0,28.0,30.31,West,280,3.0,-999.0,100,-99.99,,,-99.99,,2013-03-07 12:12:00,
2013-03-07 07:23:00,28.0,28.0,30.31,WNW,290,3.0,-999.0,100,-99.99,,,-99.99,,2013-03-07 12:23:00,
2013-03-07 07:33:00,28.0,28.0,30.32,WNW,300,3.0,-999.0,100,-99.99,,,-99.99,,2013-03-07 12:33:00,
2013-03-07 07:42:00,28.0,28.0,30.32,WNW,290,3.0,-999.0,100,-99.99,,,-99.99,,2013-03-07 12:42:00,
2013-03-07 07:52:00,28.0,28.0,30.32,North,0,0.0,-999.0,100,-99.99,,,-99.99,,2013-03-07 12:52:00,
2013-03-07 08:03:00,28.0,28.0,30.32,North,0,0.0,-999.0,100,-99.99,,,-99.99,,2013-03-07 13:03:00,
2013-03-07 08:12:00,28.0,28.0,30.32,WNW,290,3.0,-999.0,100,-99.99,,,-99.99,,2013-03-07 13:12:00,
2013-03-07 08:22:00,30.0,28.0,30.32,WNW,290,3.0,-999.0,92,-99.99,,,-99.99,,2013-03-07 13:22:00,
2013-03-07 08:32:00,30.0,28.0,30.33,WNW,300,3.0,-999.0,92,-99.99,,,-99.99,,2013-03-07 13:32:00,
2013-03-07 08:42:00,30.0,28.0,30.34,North,0,0.0,-999.0,92,-99.99,,,-99.99,,2013-03-07 13:42:00,
2013-03-07 08:53:00,30.0,28.0,30.34,WNW,300,3.0,-999.0,92,-99.99,,,-99.99,,2013-03-07 13:53:00,
2013-03-07 09:02:00,30.0,28.0,30.34,WNW,300,3.0,-999.0,92,-99.99,,,-99.99,,2013-03-07 14:02:00,
2013-03-07 09:12:00,30.0,28.0,30.34,North,0,0.0,-999.0,92,-99.99,,,-99.99,,2013-03-07 14:12:00,
2013-03-07 09:23:00,30.0,28.0,30.34,North,0,0.0,-999.0,92,-99.99,,,-99.99,,2013-03-07 14:23:00,
2013-03-07 09:33:00,30.0,28.0,30.34,North,0,0.0,-999.0,92,-99.99,,,-99.99,,2013-03-07 14:33:00,
2013-03-07 09:42:00,30.0,28.0,30.34,North,0,0.0,-999.0,92,-99.99,,,-99.99,,2013-03-07 14:42:00,
2013-03-07 09:53:00,30.0,28.0,30.34,WNW,300,3.0,-999.0,92,-99.99,,,-99.99,,2013-03-07 14:53:00,
2013-03-07 10:03:00,30.0,28.0,30.34,WNW,300,3.0,-999.0,92,-99.99,,,-99.99,,2013-03-07 15:03:00,
2013-03-07 10:12:00,30.0,28.0,30.35,North,0,0.0,-999.0,92,-99.99,,,-99.99,,2013-03-07 15:12:00,
2013-03-07 10:23:00,30.0,28.0,30.35,WNW,300,5.0,-999.0,92,-99.99,,,-99.99,,2013-03-07 15:23:00,
2013-03-07 10:42:00,30.0,28.0,30.35,NW,310,5.0,-999.0,92,-99.99,,,-99.99,,2013-03-07 15:42:00,
2013-03-07 10:52:00,30.0,28.0,30.35,North,0,0.0,-999.0,92,-99.99,,,-99.99,,2013-03-07 15:52:00,
2013-03-07 11:02:00,30.0,28.0,30.35,North,0,0.0,-999.0,92,-99.99,,,-99.99,,2013-03-07 16:02:00,
2013-03-07 11:13:00,32.0,28.0,30.36,WNW,300,3.0,-999.0,86,-99.99,,,-99.99,,2013-03-07 16:13:00,
2013-03-07 11:23:00,32.0,28.0,30.35,WNW,290,3.0,-999.0,86,-99.99,,,-99.99,,2013-03-07 16:23:00,
2013-03-07 11:32:00,32.0,28.0,30.35,West,280,5.0,-999.0,86,-99.99,,,-99.99,,2013-03-07 16:32:00,
2013-03-07 11:43:00,32.0,28.0,30.35,West,280,3.0,-999.0,86,-99.99,,,-99.99,,2013-03-07 16:43:00,
2013-03-07 11:52:00,32.0,28.0,30.36,WNW,300,5.0,-999.0,86,-99.99,,,-99.99,,2013-03-07 16:52:00,
2013-03-07 12:02:00,32.0,28.0,30.36,WNW,300,5.0,-999.0,86,-99.99,,,-99.99,,2013-03-07 17:02:00,
2013-03-07 12:12:00,32.0,28.0,30.36,WNW,290,3.0,-999.0,86,-99.99,,,-99.99,,2013-03-07 17:12:00,
2013-03-07 12:22:00,32.0,28.0,30.35,North,0,0.0,-999.0,86,-99.99,,,-99.99,,2013-03-07 17:22:00,
2013-03-07 12:33:00,32.0,28.0,30.35,WNW,300,5.0,-999.0,86,-99.99,,,-99.99,,2013-03-07 17:33:00,
2013-03-07 12:43:00,32.0,28.0,30.35,North,0,0.0,-999.0,86,-99.99,,,-99.99,,2013-03-07 17:43:00,
2013-03-07 12:53:00,34.0,28.0,30.35,NW,320,6.0,-999.0,80,-99.99,,,-99.99,,2013-03-07 17:53:00,
2013-03-07 13:04:00,34.0,28.0,30.35,NW,320,6.0,-999.0,80,-99.99,,,-99.99,,2013-03-07 18:04:00,
2013-03-07 13:12:00,34.0,28.0,30.35,NW,310,6.0,-999.0,80,-99.99,,,-99.99,,2013-03-07 18:12:00,
2013-03-07 13:22:00,34.0,28.0,30.34,WNW,300,5.0,-999.0,80,-99.99,,,-99.99,,2013-03-07 18:22:00,
2013-03-07 13:32:00,34.0,28.0,30.34,North,0,0.0,-999.0,80,-99.99,,,-99.99,,2013-03-07 18:32:00,
2013-03-07 13:42:00,34.0,28.0,30.34,WNW,300,3.0,-999.0,80,-99.99,,,-99.99,,2013-03-07 18:42:00,
2013-03-07 13:52:00,34.0,28.0,30.34,NW,320,6.0,-999.0,80,-99.99,,,-99.99,,2013-03-07 18:52:00,
2013-03-07 14:03:00,34.0,28.0,30.34,NW,320,6.0,-999.0,80,-99.99,,,-99.99,,2013-03-07 19:03:00,
2013-03-07 14:12:00,34.0,28.0,30.34,West,280,5.0,-999.0,80,-99.99,,,-99.99,,2013-03-07 19:12:00,
2013-03-07 14:23:00,34.0,28.0,30.33,WNW,300,5.0,-999.0,80,-99.99,,,-99.99,,2013-03-07 19:23:00,
2013-03-07 14:35:00,34.0,28.0,30.33,North,0,0.0,-999.0,80,-99.99,,,-99.99,,2013-03-07 19:35:00,
2013-03-07 14:43:00,34.0,28.0,30.33,NW,310,6.0,-999.0,80,-99.99,,,-99.99,,2013-03-07 19:43:00,
2013-03-07 14:52:00,34.0,28.0,30.33,NW,310,3.0,-999.0,80,-99.99,,,-99.99,,2013-03-07 19:52:00,
2013-03-07 15:02:00,34.0,28.0,30.33,NW,310,3.0,-999.0,80,-99.99,,,-99.99,,2013-03-07 20:02:00,
2013-03-07 15:22:00,34.0,28.0,30.33,West,270,5.0,-999.0,80,-99.99,,,-99.99,,2013-03-07 20:22:00,
2013-03-07 15:33:00,34.0,28.0,30.33,West,260,3.0,-999.0,80,-99.99,,,-99.99,,2013-03-07 20:33:00,
2013-03-07 15:42:00,34.0,28.0,30.33,West,280,3.0,-999.0,80,-99.99,,,-99.99,,2013-03-07 20:42:00,
2013-03-07 15:53:00,34.0,28.0,30.33,North,0,0.0,-999.0,80,-99.99,,,-99.99,,2013-03-07 20:53:00,
2013-03-07 16:03:00,34.0,28.0,30.33,North,0,0.0,-999.0,80,-99.99,,,-99.99,,2013-03-07 21:03:00,
2013-03-07 16:12:00,36.0,28.0,30.34,WNW,300,5.0,-999.0,74,-99.99,,,-99.99,,2013-03-07 21:12:00,
2013-03-07 16:22:00,36.0,28.0,30.34,WNW,300,3.0,-999.0,74,-99.99,,,-99.99,,2013-03-07 21:22:00,
2013-03-07 16:33:00,36.0,28.0,30.34,West,280,5.0,-999.0,74,-99.99,,,-99.99,,2013-03-07 21:33:00,
2013-03-07 16:42:00,34.0,28.0,30.34,North,0,0.0,-999.0,80,-99.99,,,-99.99,,2013-03-07 21:42:00,
2013-03-07 16:52:00,36.0,28.0,30.34,NW,310,5.0,-999.0,74,-99.99,,,-99.99,,2013-03-07 21:52:00,
2013-03-07 17:02:00,36.0,28.0,30.34,NW,310,5.0,-999.0,74,-99.99,,,-99.99,,2013-03-07 22:02:00,
2013-03-07 17:12:00,36.0,28.0,30.35,WNW,300,5.0,-999.0,74,-99.99,,,-99.99,,2013-03-07 22:12:00,
2013-03-07 17:22:00,34.0,28.0,30.34,WNW,300,5.0,-999.0,80,-99.99,,,-99.99,,2013-03-07 22:22:00,
2013-03-07 17:32:00,34.0,28.0,30.35,WNW,300,3.0,-999.0,80,-99.99,,,-99.99,,2013-03-07 22:32:00,
2013-03-07 17:42:00,34.0,28.0,30.35,West,280,3.0,-999.0,80,-99.99,,,-99.99,,2013-03-07 22:42:00,
2013-03-07 17:53:00,34.0,28.0,30.35,North,0,0.0,-999.0,80,-99.99,,,-99.99,,2013-03-07 22:53:00,
2013-03-07 18:03:00,34.0,28.0,30.35,North,0,0.0,-999.0,80,-99.99,,,-99.99,,2013-03-07 23:03:00,
2013-03-07 18:13:00,34.0,28.0,30.35,West,280,3.0,-999.0,80,-99.99,,,-99.99,,2013-03-07 23:13:00,
2013-03-07 18:22:00,34.0,30.0,30.35,North,0,0.0,-999.0,86,-99.99,,,-99.99,,2013-03-07 23:22:00,
2013-03-07 18:33:00,34.0,30.0,30.35,North,0,0.0,-999.0,86,-99.99,,,-99.99,,2013-03-07 23:33:00,
2013-03-07 18:43:00,34.0,30.0,30.35,North,0,0.0,-999.0,86,-99.99,,,-99.99,,2013-03-07 23:43:00,
2013-03-07 18:53:00,34.0,30.0,30.35,North,0,0.0,-999.0,86,-99.99,,,-99.99,,2013-03-07 23:53:00,
2013-03-07 19:04:00,34.0,30.0,30.35,North,0,0.0,-999.0,86,-99.99,,,-99.99,,2013-03-08 00:04:00,
2013-03-07 19:13:00,34.0,30.0,30.36,North,0,0.0,-999.0,86,-99.99,,,-99.99,,2013-03-08 00:13:00,
2013-03-07 19:23:00,34.0,30.0,30.36,North,0,0.0,-999.0,86,-99.99,,,-99.99,,2013-03-08 00:23:00,
2013-03-07 19:34:00,34.0,28.0,30.36,WNW,290,3.0,-999.0,80,-99.99,,,-99.99,,2013-03-08 00:34:00,
2013-03-07 19:43:00,34.0,30.0,30.36,North,0,0.0,-999.0,86,-99.99,,,-99.99,,2013-03-08 00:43:00,
2013-03-07 19:52:00,34.0,30.0,30.36,North,0,0.0,-999.0,86,-99.99,,,-99.99,,2013-03-08 00:52:00,
2013-03-07 20:02:00,34.0,30.0,30.36,North,0,0.0,-999.0,86,-99.99,,,-99.99,,2013-03-08 01:02:00,
2013-03-07 20:11:00,34.0,28.0,30.36,North,0,0.0,-999.0,80,-99.99,,,-99.99,,2013-03-08 01:11:00,
2013-03-07 20:21:00,34.0,28.0,30.36,North,0,0.0,-999.0,80,-99.99,,,-99.99,,2013-03-08 01:21:00,
2013-03-07 20:33:00,34.0,28.0,30.37,WNW,290,3.0,-999.0,80,-99.99,,,-99.99,,2013-03-08 01:33:00,
2013-03-07 20:42:00,34.0,28.0,30.37,North,0,0.0,-999.0,80,-99.99,,,-99.99,,2013-03-08 01:42:00,
2013-03-07 20:52:00,34.0,30.0,30.37,North,0,0.0,-999.0,86,-99.99,,,-99.99,,2013-03-08 01:52:00,
2013-03-07 21:01:00,34.0,30.0,30.37,North,0,0.0,-999.0,86,-99.99,,,-99.99,,2013-03-08 02:01:00,
2013-03-07 21:12:00,34.0,30.0,30.37,WNW,290,3.0,-999.0,86,-99.99,,,-99.99,,2013-03-08 02:12:00,
2013-03-07 21:22:00,34.0,28.0,30.37,North,0,0.0,-999.0,80,-99.99,,,-99.99,,2013-03-08 02:22:00,
2013-03-07 21:32:00,34.0,28.0,30.37,North,0,0.0,-999.0,80,-99.99,,,-99.99,,2013-03-08 02:32:00,
2013-03-07 21:42:00,34.0,28.0,30.37,NW,310,3.0,-999.0,80,-99.99,,,-99.99,,2013-03-08 02:42:00,
2013-03-07 21:52:00,32.0,30.0,30.37,WNW,300,3.0,-999.0,92,-99.99,,,-99.99,,2013-03-08 02:52:00,
2013-03-07 22:02:00,32.0,30.0,30.37,WNW,300,3.0,-999.0,92,-99.99,,,-99.99,,2013-03-08 03:02:00,
2013-03-07 22:12:00,34.0,28.0,30.37,West,280,3.0,-999.0,80,-99.99,,,-99.99,,2013-03-08 03:12:00,
2013-03-07 22:22:00,34.0,28.0,30.37,North,0,0.0,-999.0,80,-99.99,,,-99.99,,2013-03-08 03:22:00,
2013-03-07 22:32:00,32.0,28.0,30.37,NW,310,3.0,-999.0,86,-99.99,,,-99.99,,2013-03-08 03:32:00,
2013-03-07 22:42:00,32.0,30.0,30.37,NW,320,3.0,-999.0,92,-99.99,,,-99.99,,2013-03-08 03:42:00,
2013-03-07 22:52:00,32.0,28.0,30.37,WNW,300,3.0,-999.0,86,-99.99,,,-99.99,,2013-03-08 03:52:00,
2013-03-07 23:02:00,32.0,28.0,30.37,WNW,300,3.0,-999.0,86,-99.99,,,-99.99,,2013-03-08 04:02:00,
2013-03-07 23:11:00,32.0,28.0,30.37,North,0,0.0,-999.0,86,-99.99,,,-99.99,,2013-03-08 04:11:00,
2013-03-07 23:22:00,32.0,28.0,30.37,North,0,0.0,-999.0,86,-99.99,,,-99.99,,2013-03-08 04:22:00,
2013-03-07 23:32:00,32.0,28.0,30.37,North,0,0.0,-999.0,86,-99.99,,,-99.99,,2013-03-08 04:32:00,
2013-03-07 23:42:00,32.0,28.0,30.37,North,0,0.0,-999.0,86,-99.99,,,-99.99,,2013-03-08 04:42:00,
2013-03-07 23:52:00,32.0,28.0,30.36,North,0,0.0,-999.0,86,-99.99,,,-99.99,,2013-03-08 04:52:00,